[[{"header":{"parameterUnit":"m.s-1","parameterCategory":1,"la1":30.2991,"la2":30.254,"lo1":-89.0895,"lo2":-89.0444,"dy":0.0017,"dx":0.0017,"nx":28,"ny":28,"refTime":"2024-10-14T21:00:00:Z","depth":0,"parameterNumber":2,"parameterNumberName":"U-component_of_WINDS"},"data":[0,0,0,0,0,0,0,0,0,0,0,0,0,0,0,0,0,0,0,0,0,0,0,0,0,0,0,0,0,0,0,0,0,0,0,0,0,0,0,0,0,0,0,0,0,0,0,0,0,0,0,0,0,0,0,0,0,0,3.8817,3.8818,0,3.8911,3.8912,3.8913,3.8904,3.8903,3.8901,3.89,3.8996,3.9,3.9004,0,0,0,0,0,0,0,0,0,0,0,0,0,3.8634,3.8637,3.8817,3.8818,3.8819,3.891,3.8912,3.8913,3.8904,3.8903,3.8901,3.8899,3.8995,3.9,3.9004,0,0,0,0,0,0,0,0,0,0,0,0,0,3.8719,3.8638,3.8817,3.8826,3.8828,3.891,3.8912,3.8913,3.8905,3.8903,3.89,3.8898,3.8994,3.8999,3.9005,3.9085,0,0,3.9023,3.9026,0,0,0,0,0,0,0,0,3.8714,3.8726,3.8824,3.8826,3.8828,3.8893,3.8883,3.8971,3.8905,3.8876,3.89,3.8897,3.8964,3.8972,3.8994,3.9089,3.9093,3.9024,3.9027,3.903,3.9031,0,0,0,0,0,0,0,3.8708,3.8722,3.8854,3.8825,3.8828,3.8826,3.8836,3.8899,3.8931,3.8878,3.8878,3.8889,3.8965,3.8989,3.8997,3.9095,3.9023,3.9029,3.9032,3.9035,3.9263,3.9266,0,0,0,0,0,0,3.87,3.8717,3.8851,3.8857,3.8764,3.8832,3.8842,3.8875,3.893,3.8936,3.889,3.8888,3.898,3.899,3.9,3.9099,3.903,3.9035,3.9038,3.9261,3.9264,3.9266,0,0,0,0,0,0,3.8696,3.8712,3.8847,3.8787,3.8804,3.8837,3.8873,3.8877,3.8902,3.8939,3.8945,3.8909,3.8979,3.8992,3.9064,3.9102,3.9038,3.9043,3.9258,3.9261,3.9265,3.9296,0,0,0,0,0,0,3.8691,3.8711,3.874,3.8788,3.8807,3.8909,3.8875,3.8881,3.8912,3.8909,3.8958,3.8965,3.8978,3.9056,3.907,3.9109,3.9048,3.9254,3.9259,3.9264,3.9292,3.93,3.9308,0,0,0,0,0,3.8684,3.8745,3.8742,3.8758,3.8845,3.8911,3.8923,3.8936,3.8915,3.8945,3.897,3.8963,3.9096,3.9063,3.9079,3.9121,3.9252,3.9258,3.9263,3.9288,3.9299,3.9308,0,0,0,0,0,0,3.87,3.8751,3.8748,3.8825,3.8864,3.891,3.8949,3.8947,3.8992,3.8988,3.9004,3.9015,3.9089,3.9112,3.9075,3.9202,3.9171,3.918,3.9184,3.9195,3.9203,3.9196,3.9053,0,0,0,0,0,3.8713,3.8762,3.8804,3.8868,3.8888,3.8915,3.8944,3.8952,3.8993,3.9009,3.9039,3.908,3.9131,3.9164,3.9213,3.9295,3.9307,3.9332,3.934,3.9346,3.9354,3.9403,3.9415,3.9285,3.9285,3.9285,0,0,3.8739,3.8773,3.8803,3.8872,3.8903,3.8955,3.8929,3.8984,3.9023,3.9018,3.9088,3.9112,3.9159,3.9237,3.9274,3.9259,3.9393,3.9354,3.9358,3.9363,3.941,3.9422,3.9433,3.9289,3.9288,3.9288,0,0,3.8814,3.8844,3.8902,3.8934,3.8981,3.9,3.9014,3.9061,3.9076,3.9148,3.9146,3.9193,3.928,3.9314,3.9342,3.9434,3.943,3.945,3.9491,3.9538,3.9549,3.9558,3.9592,3.9604,3.9457,3.9457,3.9457,0,3.8841,3.8918,3.8932,3.8989,3.902,3.9019,3.9079,3.9109,3.917,3.9193,3.9176,3.9287,3.9318,3.9406,3.9428,3.9451,3.9469,3.9444,3.9546,3.9555,3.9564,3.9597,3.961,3.946,3.9459,3.9459,3.9459,0,3.895,3.9004,3.9045,3.9105,3.9141,3.9199,3.9223,3.9259,3.9264,3.9285,3.9359,3.9397,3.9455,3.9476,3.9481,3.9566,3.9556,3.9542,3.9511,3.9578,3.961,3.9622,3.9463,3.9462,3.9461,3.9461,0,0,3.9035,3.9104,3.9119,3.9148,3.9202,3.9244,3.9303,3.936,3.9391,3.9434,3.9486,3.9561,3.955,3.9582,3.9592,3.9633,3.9706,3.9614,3.9616,3.9631,3.9804,3.9814,3.9829,3.9703,3.9706,3.9708,3.9801,0,3.9116,3.9221,3.9236,3.9329,3.938,3.9381,3.9433,3.9473,3.9494,3.9542,3.9566,3.962,3.96,3.962,3.9661,3.9688,3.9741,3.9681,3.9753,3.9755,3.9741,3.9845,3.9855,3.9941,3.9813,3.9815,3.9816,0,3.9224,3.9272,3.9369,3.9419,3.9441,3.9487,3.9542,3.9587,3.9633,3.9647,3.9685,3.969,3.9753,3.972,3.9809,3.9768,3.9799,3.9817,3.9821,3.9828,3.979,3.9856,3.9969,3.9982,3.9836,3.9834,3.9833,0,3.9279,3.9367,3.9438,3.9462,3.9521,3.9554,3.958,3.9624,3.9658,3.9707,3.973,3.9785,3.9815,3.9859,3.9879,3.9853,3.9968,3.9935,3.9982,3.9981,4.0006,4.0004,4.0126,4.0024,4.0024,4.0024,4.0023,0,3.9369,3.9429,3.9463,3.9507,3.9575,3.9594,3.9661,3.9687,3.9726,3.9776,3.978,3.9827,3.9851,3.9902,3.9919,3.9991,4.0005,4.0018,4.0022,4.0018,4.0017,4.0039,4.0034,4.0027,4.0026,4.0026,4.0025,0,3.9441,3.9466,3.9544,3.9594,3.9609,3.9657,3.9701,3.9744,3.9766,3.9829,3.9845,3.9881,3.9941,3.9967,4.004,4.0052,4.0136,4.0134,4.012,4.0121,4.0167,4.0163,4.0307,4.0328,4.0212,4.0213,4.0214,0,3.9497,3.9543,3.9599,3.9633,3.9661,3.9715,3.975,3.9771,3.9808,3.9866,3.9903,3.9963,4.0013,4.011,4.0143,4.0201,4.0202,4.0248,4.021,4.0206,4.0204,4.0202,4.0207,4.0255,4.0257,4.0257,4.0258,0,3.9593,3.9604,3.9655,3.9712,3.9754,3.9799,3.9843,3.9871,3.9899,3.9941,4.0003,4.0042,4.0119,4.0179,4.0239,4.0268,4.0269,4.027,4.0284,4.0281,4.0272,4.0279,4.014,4.0267,4.0266,4.0265,4.0265,4.0264,3.966,3.9703,3.975,3.9807,3.9843,3.9885,3.9929,3.9957,4.001,4.0074,4.0083,4.015,4.0198,4.0279,4.031,4.0364,4.0352,4.0372,4.0377,4.0382,4.0386,4.0263,4.0375,4.0375,4.0374,4.0374,4.0374,0,3.9759,3.979,3.9842,3.9905,3.995,3.9947,3.9997,4.0036,4.0095,4.0139,4.0189,4.0262,4.0322,4.036,4.0421,4.0457,4.0459,4.0473,4.047,4.0478,4.0392,4.0375,4.047,4.047,4.047,4.047,4.047,4.047,3.9815,3.9888,3.9905,3.9996,4.0027,4.0093,4.0122,4.0161,4.0197,4.0279,4.0329,4.0353,4.0397,4.0461,4.0517,4.0527,4.055,4.0564,4.0574,4.0493,4.0483,4.0474,4.0457,4.0569,4.0569,4.0655,4.0655,4.0656]},{"header":{"parameterUnit":"m.s-1","parameterCategory":1,"la1":30.2991,"la2":30.254,"lo1":-89.0895,"lo2":-89.0444,"dy":0.0017,"dx":0.0017,"nx":28,"ny":28,"refTime":"2024-10-14T21:00:00:Z","depth":0,"parameterNumber":3,"parameterNumberName":"V-component_of_WINDS"},"data":[0,0,0,0,0,0,0,0,0,0,0,0,0,0,0,0,0,0,0,0,0,0,0,0,0,0,0,0,0,0,0,0,0,0,0,0,0,0,0,0,0,0,0,0,0,0,0,0,0,0,0,0,0,0,0,0,0,0,-1.2611,-1.2612,0,-1.2691,-1.2692,-1.2693,-1.2749,-1.275,-1.275,-1.275,-1.2833,-1.2834,-1.2836,0,0,0,0,0,0,0,0,0,0,0,0,0,-1.2506,-1.2508,-1.2611,-1.2612,-1.2613,-1.2691,-1.2692,-1.2694,-1.2749,-1.275,-1.275,-1.2751,-1.2832,-1.2834,-1.2836,0,0,0,0,0,0,0,0,0,0,0,0,0,-1.2566,-1.2508,-1.2611,-1.265,-1.2654,-1.2691,-1.2692,-1.2694,-1.2749,-1.275,-1.275,-1.2751,-1.2831,-1.2834,-1.2836,-1.284,0,0,-1.2845,-1.2846,0,0,0,0,0,0,0,0,-1.2562,-1.2569,-1.2643,-1.2647,-1.2652,-1.2711,-1.2686,-1.2743,-1.2749,-1.2713,-1.275,-1.2751,-1.2792,-1.2798,-1.2811,-1.2844,-1.2848,-1.2845,-1.2847,-1.2848,-1.2849,0,0,0,0,0,0,0,-1.2558,-1.2566,-1.2643,-1.2644,-1.265,-1.2664,-1.2673,-1.2697,-1.2748,-1.2716,-1.272,-1.2729,-1.2794,-1.2808,-1.2814,-1.2849,-1.2845,-1.2847,-1.2849,-1.285,-1.2892,-1.2891,0,0,0,0,0,0,-1.2548,-1.2562,-1.264,-1.2645,-1.2608,-1.2665,-1.2676,-1.2691,-1.2748,-1.2757,-1.2729,-1.2731,-1.2804,-1.281,-1.2817,-1.2827,-1.2848,-1.285,-1.2852,-1.2892,-1.2892,-1.2891,0,0,0,0,0,0,-1.2545,-1.2554,-1.2637,-1.2605,-1.2617,-1.2667,-1.2684,-1.2693,-1.2707,-1.2757,-1.2766,-1.2734,-1.2804,-1.2813,-1.2835,-1.283,-1.2851,-1.2854,-1.2893,-1.2892,-1.2892,-1.2845,0,0,0,0,0,0,-1.2542,-1.2553,-1.2554,-1.2605,-1.2618,-1.2653,-1.2683,-1.2694,-1.2712,-1.2716,-1.2764,-1.2773,-1.2806,-1.283,-1.2837,-1.2834,-1.2856,-1.2894,-1.2893,-1.2892,-1.2848,-1.2843,-1.2839,0,0,0,0,0,-1.2538,-1.2537,-1.2554,-1.2563,-1.2621,-1.2653,-1.266,-1.2698,-1.2711,-1.2713,-1.2746,-1.2771,-1.2829,-1.2832,-1.284,-1.2838,-1.2894,-1.2893,-1.2892,-1.2849,-1.2844,-1.2839,0,0,0,0,0,0,-1.2485,-1.2545,-1.2564,-1.258,-1.2611,-1.2662,-1.2666,-1.2691,-1.2718,-1.2722,-1.2767,-1.2777,-1.2795,-1.2819,-1.2821,-1.2846,-1.2865,-1.2866,-1.283,-1.2825,-1.2821,-1.2815,-1.2858,0,0,0,0,0,-1.2475,-1.2495,-1.2547,-1.2556,-1.257,-1.2615,-1.263,-1.2657,-1.2691,-1.2704,-1.2738,-1.277,-1.2796,-1.2812,-1.2838,-1.2851,-1.2864,-1.2854,-1.285,-1.2846,-1.2846,-1.2857,-1.2854,-1.2888,-1.2888,-1.2888,0,0,-1.2455,-1.249,-1.25,-1.2546,-1.2573,-1.2594,-1.2626,-1.2646,-1.2662,-1.2707,-1.273,-1.2756,-1.2795,-1.2813,-1.2823,-1.2834,-1.284,-1.2845,-1.2842,-1.2844,-1.2856,-1.2852,-1.285,-1.2887,-1.2887,-1.2887,0,0,-1.2429,-1.2457,-1.2468,-1.2495,-1.2536,-1.2567,-1.2569,-1.2618,-1.2637,-1.2661,-1.2696,-1.2716,-1.2759,-1.2786,-1.2805,-1.2791,-1.2816,-1.2798,-1.2777,-1.2787,-1.2785,-1.2783,-1.2779,-1.2777,-1.2798,-1.2798,-1.2798,0,-1.2398,-1.2431,-1.2471,-1.249,-1.251,-1.2552,-1.2565,-1.2589,-1.2636,-1.2649,-1.2661,-1.2717,-1.2746,-1.2772,-1.2769,-1.2783,-1.2788,-1.2793,-1.2782,-1.278,-1.2779,-1.2776,-1.2774,-1.2796,-1.2796,-1.2796,-1.2797,0,-1.2392,-1.2414,-1.2419,-1.2464,-1.2485,-1.25,-1.2544,-1.2559,-1.2584,-1.2614,-1.2639,-1.2675,-1.2711,-1.2719,-1.2743,-1.2749,-1.2754,-1.2773,-1.2793,-1.2772,-1.2771,-1.277,-1.2792,-1.2793,-1.2794,-1.2795,0,0,-1.2334,-1.2403,-1.2404,-1.2426,-1.2475,-1.2494,-1.2512,-1.2547,-1.256,-1.2592,-1.2609,-1.2645,-1.2664,-1.2686,-1.2713,-1.2722,-1.2711,-1.274,-1.2742,-1.2734,-1.2722,-1.2708,-1.2706,-1.2728,-1.2728,-1.2728,-1.2719,0,-1.2316,-1.2351,-1.2389,-1.2411,-1.2432,-1.2474,-1.249,-1.2522,-1.2551,-1.2574,-1.2605,-1.2631,-1.2652,-1.2666,-1.2676,-1.271,-1.2709,-1.2711,-1.2745,-1.2746,-1.2735,-1.2705,-1.269,-1.2679,-1.2718,-1.2718,-1.2718,0,-1.23,-1.2331,-1.2355,-1.2404,-1.2415,-1.2428,-1.2465,-1.2486,-1.2524,-1.2544,-1.2569,-1.26,-1.2622,-1.2639,-1.2671,-1.2672,-1.2688,-1.2707,-1.2708,-1.2713,-1.2731,-1.271,-1.2677,-1.2675,-1.2717,-1.2717,-1.2717,0,-1.2257,-1.2304,-1.2325,-1.2343,-1.24,-1.2409,-1.2433,-1.2472,-1.2492,-1.2523,-1.2537,-1.257,-1.2589,-1.2615,-1.2654,-1.2663,-1.2682,-1.2703,-1.2701,-1.27,-1.2703,-1.2703,-1.2673,-1.2712,-1.2712,-1.2712,-1.2712,0,-1.2234,-1.2247,-1.2307,-1.232,-1.2337,-1.238,-1.2396,-1.2424,-1.2459,-1.2479,-1.2516,-1.2534,-1.2584,-1.2608,-1.2639,-1.2662,-1.267,-1.2687,-1.2696,-1.2685,-1.2682,-1.2696,-1.2698,-1.2712,-1.2712,-1.2712,-1.2712,0,-1.2188,-1.2229,-1.2255,-1.2307,-1.2321,-1.2331,-1.2377,-1.2392,-1.2423,-1.2447,-1.2456,-1.2505,-1.2535,-1.2577,-1.262,-1.2641,-1.266,-1.2672,-1.2647,-1.2652,-1.2648,-1.2648,-1.2627,-1.2627,-1.2665,-1.2664,-1.2664,0,-1.2171,-1.2183,-1.2237,-1.2253,-1.2277,-1.2302,-1.2322,-1.2366,-1.2386,-1.2432,-1.2441,-1.2475,-1.2504,-1.2552,-1.2591,-1.2625,-1.2639,-1.2629,-1.2644,-1.2633,-1.264,-1.264,-1.2642,-1.2625,-1.2625,-1.2624,-1.2624,0,-1.2137,-1.2157,-1.2184,-1.222,-1.2243,-1.2273,-1.2305,-1.2316,-1.2367,-1.2387,-1.2419,-1.2442,-1.2487,-1.2521,-1.256,-1.2586,-1.2614,-1.2619,-1.2621,-1.261,-1.2595,-1.2605,-1.2638,-1.2619,-1.262,-1.262,-1.262,-1.2621,-1.2106,-1.2119,-1.216,-1.219,-1.2219,-1.2248,-1.2265,-1.2298,-1.2326,-1.2366,-1.2391,-1.2422,-1.2462,-1.2518,-1.2543,-1.2569,-1.258,-1.2582,-1.2582,-1.2582,-1.2579,-1.2591,-1.2576,-1.2576,-1.2577,-1.2577,-1.2577,0,-1.2075,-1.2104,-1.2131,-1.2175,-1.2199,-1.2223,-1.226,-1.2279,-1.2306,-1.2341,-1.2369,-1.2407,-1.244,-1.2483,-1.252,-1.2532,-1.2546,-1.254,-1.254,-1.2546,-1.2567,-1.2562,-1.2529,-1.2529,-1.2529,-1.2529,-1.2529,-1.2529,-1.2061,-1.2085,-1.211,-1.2149,-1.2178,-1.2209,-1.2228,-1.2256,-1.2284,-1.2325,-1.2353,-1.2381,-1.2419,-1.2459,-1.2491,-1.2503,-1.2515,-1.2506,-1.2522,-1.254,-1.2544,-1.2549,-1.2545,-1.2508,-1.2508,-1.2499,-1.2499,-1.2499]}]]